www.pogodaiklimat.ru

Погода и климат >> Архив погоды >> Россия >> Хабаровский край >> Богородское


ПОГОДА в Богородском

  • Прогноз погоды в Богородском
  • Монитор погоды в Богородском

АРХИВ ПОГОДЫ в Богородском

Время (UTC), дата Ветер
(напр.,м/с)
 
Видим.   Явления Облачность Т
(С)
Тd
(С)
f
(%)
Тe
(С)
Тes
(С)
Комфортность P
(гПа)
Po
(гПа)
Тmin
(С)
Tmax
(С)
R
(мм)
R24
(мм)
S
(см)
03 14.09 ЮЗ 3 50 км в посл. час ливневой дождь 9/9 600 м
[Cb cap]
+16.6 +13.4 81 +16 +17 996.2 992.2
06 14.09 С 5 50 км {ливн. осадки} 8/8 600 м
[Cb cap]
+17.4 +8.1 54 +17 +17 997.3 993.3
09 14.09 С 6-13
{13}
50 км 8/5 600 м
[Sc Ac trans]
+14.1 +6.1 59 +12 +12 1001.6 997.5 +20.0 12
12 14.09 СЗ 3
{13}
50 км 1/0
[Ac lent]
+13.5 +2.3 47 +13 +13 1005.0 1000.8
15 14.09 СЗ 1 50 км ясно +10.7 +3.7 62 +11 +11 1006.6 1002.4
18 14.09 В 1 50 км ясно +5.5 +3.6 88 +4 +4 1007.6 1003.3
21 14.09 ЮВ 2 50 км 3/1 600 м
[Sc Ac trans]
+5.8 +2.8 81 +3 +4 1009.3 1005.0 +4.4
00 15.09 Ю 2 50 км 1/0
[Ac trans]
+13.1 +4.9 57 +13 +18 1009.6 1005.5
03 15.09 Ю 5 50 км ясно +16.2 +6.0 51 +15 +20 1008.8 1004.7
06 15.09 Ю 3 50 км 3/0
[Ac lent]
+18.2 +3.2 37 +18 +21 1008.1 1004.0
09 15.09 ЮВ 2 50 км 8/6 600 м
[Sc Ac trans]
+16.1 +2.6 40 +16 +16 1007.8 1003.7 +18.5
12 15.09 ЮЗ 1 50 км 3/1 600 м
[Sc Ac trans]
+11.8 +7.5 75 +12 +12 1007.7 1003.5
15 15.09 СВ 1 50 км 8/4 600 м
[Sc Ac trans Ci fib]
+8.3 +6.0 85 +8 +8 1007.8 1003.6
18 15.09 С 1 50 км 3/0
[Ac trans Ci fib]
+7.7 +6.1 90 +7 +7 1006.5 1002.3
21 15.09 ЮВ 1 50 км 4/0
[Ac trans Ci fib]
+9.3 +8.0 92 +9 +9 1005.7 1001.5 +7.3
00 16.09 Ю 4 50 км 10/0
[Ci]
+19.1 +9.3 53 +20 +23 1004.4 1000.4
03 16.09 Ю 6
{11}
50 км 10/10 600 м
[Cb cap]
+17.7 +10.6 63 +17 +17 1003.9 999.8
06 16.09 Ю 2
{11}
50 км {ливн. осадки} 4/3 600 м
[Cb cap Ac trans Ci fib]
+15.2 +9.3 68 +15 +17 1005.0 1000.9
09 16.09 ЮВ 1 50 км 1/1 600 м
[Sc]
+13.9 +9.7 76 +14 +14 1005.4 1001.3 +19.1 2
12 16.09 В 1 50 км 3/0
[Ac trans]
+9.6 +8.2 91 +9 +9 1006.9 1002.7
15 16.09 СВ 3 50 км 1/1 600 м
[Sc]
+9.3 +5.5 77 +7 +7 1008.2 1004.0
18 16.09 СВ 3 50 км ясно +8.0 +2.5 68 +6 +6 1008.8 1004.6
21 16.09 СВ 2 50 км ясно +6.9 +3.5 79 +5 +5 1010.2 1006.0 +6.3
00 17.09 С 3 50 км 1/1 600 м
[Cu hum]
+11.3 +6.0 70 +10 +13 1010.9 1006.7
03 17.09 С 3 50 км 8/8 600 м
[Cb cap]
+12.8 +0.4 43 +12 +13 1010.8 1006.7
06 17.09 Ю 2 50 км 1/1 600 м
[Cu hum]
+14.3 +0.9 40 +14 +17 1010.4 1006.3
09 17.09 В 1 50 км ясно +10.5 +3.5 62 +10 +10 1011.2 1007.0 +14.6
12 17.09 ЮВ 1 50 км ясно +4.7 +2.8 87 +3 +3 1011.6 1007.3
15 17.09 ЮВ 1 50 км ясно +3.1 +1.6 90 +1 +1 1011.5 1007.2
18 17.09 В 1 50 км ясно +3.8 +2.6 92 +2 +2 1010.9 1006.6
21 17.09 штиль 0 200 м туман ясно +4.7 +3.7 93 +4 +4 1010.1 1005.8 +2.3
00 18.09 Ю 1 50 км {туман} 8/0
[Ac lent Ci fib]
+13.2 +9.1 76 +13 +17 1009.3 1005.1
03 18.09 ЮВ 5
{11}
50 км 9/3 600 м
[Sc Ac lent Ci sp]
+15.5 +4.4 48 +14 +16 1006.9 1002.8
06 18.09 ЮВ 3
{11}
50 км 10/4 600 м
[Sc Ac As Ci sp]
+15.2 +6.2 55 +15 +15 1006.1 1001.9
09 18.09 В 2 50 км 10/6 600 м
[Sc Ac und]
+13.1 +4.8 57 +13 +13 1006.0 1001.9 +16.3
12 18.09 В 3 50 км 8/4 600 м
[Sc Ac lent Ci fib]
+10.4 +2.2 57 +9 +9 1005.8 1001.6
15 18.09 С 4
{10}
50 км 10/4 600 м
[Sc Ac As Ci sp]
+8.8 +2.9 66 +6 +6 1004.5 1000.3
18 18.09 В 5-11
{14}
50 км 10/3 600 м
[Sc Ac und]
+8.9 +3.4 68 +6 +6 1002.8 998.6
21 18.09 СВ 6-12
{14}
н/о н/о +9.0 +2.8 65 +5 +5 1003.5 999.3 +8.6
00 19.09 СВ 5
{12}
4000 м слаб. дождь 10/10 600 м
[Cb cap]
+8.8 +6.3 84 +5 +5 1002.9 998.7 +8.6
03 19.09 СВ 6-12
{15}
20 км в посл. час ливневой дождь 10/10 600 м
[Cb cap]
+9.7 +6.9 83 +6 +6 1001.2 997.1
06 19.09 С 5-11
{15}
10 км слаб. ливневой дождь 10/10 600 м
[Cb cap]
+10.3 +7.7 84 +7 +7 1001.2 997.1
09 19.09 С 4
{11}
10 км слаб. ливневой дождь 10/10 600 м
[Cb cap]
+9.5 +7.5 87 +7 +7 1003.0 998.8 +10.5 7
12 19.09 С 6-11
{11}
10 км слаб. ливневой дождь 10/10 600 м
[Cb cap]
+9.9 +7.6 86 +6 +6 1003.8 999.6
15 19.09 С 3
{12}
10 км слаб. ливневой дождь 10/10 600 м
[Cb cap]
+9.5 +7.5 87 +7 +7 1005.3 1001.1
18 19.09 С 3 10 км слаб. ливневой дождь 10/10 600 м
[Cb cap]
+9.0 +7.0 87 +6 +6 1006.9 1002.7
21 19.09 С 4 10 км слаб. ливневой дождь 10/10 600 м
[Cb cap]
+10.1 +7.6 84 +7 +7 1009.2 1005.0 +8.5 27
00 20.09 С 4 50 км {ливн. осадки} 10/10 600 м
[Cb cap]
+11.0 +6.9 76 +9 +9 1011.9 1007.7
03 20.09 С 4 50 км 10/9 600 м
[Cb cap Ci sp]
+12.0 +6.6 70 +10 +10 1013.5 1009.3
06 20.09 С 3 50 км 10/10 600 м
[Cb cap]
+11.5 +5.6 67 +10 +10 1015.5 1011.3
09 20.09 СВ 1 50 км 10/3 600 м
[Sc Ac trans Ci sp]
+9.9 +5.8 76 +10 +10 1017.2 1013.0 +12.4 0.0
12 20.09 ЮВ 1 50 км 10/10 600 м
[Sc]
+8.2 +5.5 83 +7 +7 1018.7 1014.4
15 20.09 штиль 0 50 км 10/4 600 м
[Sc Ac trans]
+6.8 +5.0 88 +6 +6 1019.4 1015.1
18 20.09 ЮВ 1 50 км 4/0
[Ac trans Ci fib]
+5.3 +4.0 91 +4 +4 1019.5 1015.2
21 20.09 В 1 50 км 6/4 600 м
[St Ci fib]
+4.4 +3.3 93 +3 +3 1019.4 1015.1 +3.9
00 21.09 ЮЗ 1 50 км 10/4 600 м
[Sc Ci fib]
+10.6 +6.5 76 +10 +13 1019.1 1014.9

 

Местоположение метеостанции Богородское (Хабаровский край, Россия): широта 52.38 долгота 140.40 высота над уровнем моря 35 м.

В архиве по умолчанию представлена погода в Богородском за последнюю неделю. Архивные данные за месяц целиком и за предыдущие месяцы, начиная с января 2011 года, Вы можете получить, выбрав интересующий диапазон дат из раскрывающегося списка и нажав кнопку "Ввод!".


*Определитесь, кто Вы:
робот инопланетянин человек

Внимание! Время в таблицах - всемирное. Для получения местного времени необходимо прибавить поправку, которая равна 10 ч.

Смотрите также архив погоды в соседних городах и на ближайших метеорологических станциях:

Погода в Джаоре (Хабаровский край, Россия) (63 км)
Погода в Мариинском (Хабаровский край, Россия) (75 км)
Погода в Погибях (Сахалинская область, Россия) (84 км)
Погода в Николаевск-на-Амуре (Хабаровский край, Россия) (88 км)
Погода в Байдукове (Хабаровский край, Россия) (122 км)
Погода в Удинске (Хабаровский край, Россия) (124 км)
Погода в Циммермановка (Хабаровский край, Россия) (143 км)
Погода в Литке (Хабаровский край, Россия) (175 км)
Погода в Вале (Сахалинская область, Россия) (177 км)
Погода в Ныше (Сахалинская область, Россия) (184 км)

Пояснения к столбцам:

Ветер - указаны скорость ветра в м/с - средняя за 10 мин, порывы в срок и между сроками (в фигурных скобках) и направление, откуда дует ветер: С - северный, СВ - северо-восточный, В - восточный, ЮВ - юго-восточный, Ю - южный, ЮЗ - юго-западный, З - западный, СЗ - северо-западный.
Видимость - горизонтальная дальность видимости в метрах или километрах. При видимости от 1 до 10 км при отсутствии осадков обычно наблюдается дымка, при ухудшении видимости до 1 км и менее - туман. В сухую погоду видимость может ухудшаться дымом, пылью или мглою.
Явления - указаны атмосферные явления, наблюдавшиеся в срок или в последний час перед сроком; фигурными скобками обозначены явления, наблюдавшиеся между сроками (за 1-3 часа до срока); квадратными скобками обозначены град или гололедные отложения с указанием их диаметра в мм.
Облачность - указаны через наклонную черту общая и нижняя облачность в баллах и высота нижней границы облаков в метрах; квадратными скобками обозначены формы облаков: Ci - перистые, Cs - перисто-слоистые, Cc - перисто-кучевые, Ac - высококучевые, As - высокослоистые, Sc - слоисто-кучевые, Ns - слоисто-дождевые, Cu - кучевые, Cb - кучево-дождевые. Подробнее классификацию облаков см. в Атласе облаков (PDF).
T - Температура воздуха - температура, измеренная на высоте 2 м над землей.
Td - Температура точки росы - температура, при понижении до которой содержащийся в воздухе водяной пар достигнет насыщения.
f - Относительная влажность воздуха - влажноcть воздуха, измеренная на высоте 2 м над землей.
Te - Эффективная температура - температура, которую ощущает одетый по сезону человек в тени. Характеристика душности погоды. При расчете учитывается влияние влажности воздуха и скорости ветра на теплоощущения человека.
Tes - Эффективная температура на солнце - температура, которую ощущает человек, с поправкой на солнечный нагрев. Характеристика знойности погоды. Зависит от высоты солнца над горизонтом, облачности и скорости ветра. Ночью, в пасмурную погоду, а также при ветре 12 м/с и более поправка равна нулю.
P - Атмосферное давление - приведенное к уровню моря атмосферное давление.
Po - Атмосферное давление - измеренное на уровне метеостанции атмосферное давление.
Tmin - Минимальная температура - минимум температуры воздуха на высоте 2 м над землей.
Tmax - Максимальная температура - максимум температуры воздуха на высоте 2 м над землей.
R - Количество осадков - Количество выпавших осадков за период времени, мм. При наведении курсора мыши на число - период времени, за который выпало указанное количество осадков.
R24 - Количество осадков - Количество выпавших осадков за 24 часа, мм.
S - Снежный покров - Высота снежного покрова, см. При наведении курсора мыши на число - состояние снежного покрова и степень покрытия местности в баллах.